Location: Unspecified
(0.0000°N, 0.0000°E)
Time: 20:36:02
(UTC+00:00)

Envisat - Pass Details

Date: 17 December 2017
Orbit: 764 x 766 km, 98.2° (Epoch: 18 December)

Event Time Altitude Azimuth Distance (km) Brightness Sun altitude
Rises 21:07:13 0° 201° (SSW) 3,230 6.8 -42.8°
Reaches altitude 10° 21:10:33 10° 224° (SW) 2,301 6.0 -43.5°
Enters shadow 21:11:32 13° 235° (SW) 2,122 5.8 -43.7°
